Weather reports worldwide

Advertisment
Groningen Eelde, Netherlands (6280): temperature & dewpoint: 09.12.2019 00:00:00 - 15.12.2019 00:00:00 (CET)Groningen Eelde, Netherlands (6280): temperature 5cm: 09.12.2019 00:00:00 - 15.12.2019 00:00:00 (CET)Groningen Eelde, Netherlands (6280): wind speed & gusts: 09.12.2019 00:00:00 - 15.12.2019 00:00:00 (CET)Groningen Eelde, Netherlands (6280): wind direction: 09.12.2019 00:00:00 - 15.12.2019 00:00:00 (CET)Groningen Eelde, Netherlands (6280): reduced air pressure: 09.12.2019 00:00:00 - 15.12.2019 00:00:00 (CET)Groningen Eelde, Netherlands (6280): visibility: 09.12.2019 00:00:00 - 15.12.2019 00:00:00 (CET)Groningen Eelde, Netherlands (6280): precipitation: 09.12.2019 00:00:00 - 15.12.2019 00:00:00 (CET)
Date & Time tt [°C] td [°C] tt 5cm [°C] ff [km/h] ff [kn] fx [km/h] fx [kn] dd ppp [hPa] vv [km] rr [mm]
15.12.2019 00:00:00 3,0 1,0 2,0 18 10 - - S 994,6 10 -
14.12.2019 23:00:00 3,9 0,7 2,4 22 12 40 21 SW 994,5 10 0,0
14.12.2019 22:00:00 4,3 1,4 3,3 22 12 32 18 SW 994,0 10 0,0
14.12.2019 21:00:00 3,4 1,5 2,7 24 13 61 33 WSW 993,1 10 0,2
14.12.2019 20:00:00 4,4 0,9 3,2 22 12 40 21 WSW 991,8 10 0,0
14.12.2019 19:00:00 4,0 2,1 3,2 28 15 50 27 WSW 990,8 10 0,2
14.12.2019 18:00:00 4,6 2,5 4,1 26 14 54 29 SW 989,4 9 0,7
14.12.2019 17:00:00 5,9 2,5 5,4 22 12 43 23 SW 988,2 10 0,0
14.12.2019 16:00:00 6,4 1,8 5,5 28 15 43 23 SW 987,5 10 0,0
14.12.2019 15:00:00 6,6 1,8 5,7 31 17 50 27 WSW 986,9 10 0,0
14.12.2019 14:00:00 6,5 2,3 5,8 41 22 65 35 WSW 986,3 10 0,0
14.12.2019 13:00:00 6,7 2,8 5,5 41 22 65 35 WSW 985,4 10 0,3
14.12.2019 12:00:00 4,6 1,6 3,9 35 19 68 37 WSW 984,9 10 1,2
14.12.2019 11:00:00 6,4 3,5 5,7 24 13 43 23 WSW 983,8 10 0,0
14.12.2019 10:00:00 5,5 3,4 4,7 26 14 50 27 WSW 982,7 10 0,3
14.12.2019 09:00:00 4,4 3,4 3,8 22 12 36 19 SW 981,6 10 0,0
14.12.2019 08:00:00 4,6 3,7 4,3 21 11 32 18 SSW 980,5 10 0,3
14.12.2019 07:00:00 4,5 3,3 4,2 26 14 43 23 SW 979,9 10 0,8
14.12.2019 06:00:00 4,9 3,5 4,6 31 17 43 23 SW 979,4 9 0,0
14.12.2019 05:00:00 5,0 3,3 4,5 24 13 40 21 SSW 979,1 10 0,1
14.12.2019 04:00:00 5,2 3,3 4,7 22 12 36 19 SSW 979,2 10 0,0
14.12.2019 03:00:00 5,2 3,7 4,7 22 12 43 23 SSW 979,7 10 0,0
14.12.2019 02:00:00 5,5 4,1 5,0 21 11 32 18 SSW 980,1 10 0,0
14.12.2019 01:00:00 5,3 4,3 4,9 24 13 40 21 SSW 980,4 10 0,0
14.12.2019 00:00:00 5,3 4,2 4,8 22 12 32 18 SSW 980,7 10 0,0
13.12.2019 23:00:00 4,4 3,8 3,4 13 7 22 12 S 980,9 6 0,0
13.12.2019 22:00:00 4,3 3,8 4,0 13 7 22 12 SSW 981,0 3,6 0,1
13.12.2019 21:00:00 3,6 3,2 3,5 13 7 18 10 S 981,2 3,7 0,0
13.12.2019 20:00:00 3,2 2,6 3,1 9 5 18 10 S 981,3 7 0,0
13.12.2019 19:00:00 3,4 2,3 3,2 9 5 14 8 S 981,0 10 0,0
13.12.2019 18:00:00 3,4 1,8 3,2 9 5 14 8 S 980,8 10 0,0
13.12.2019 17:00:00 3,5 1,7 3,3 5 3 11 6 SSE 979,9 10 0,0
13.12.2019 16:00:00 3,7 1,7 3,6 4 2 7 4 SSE 979,1 10 0,0
13.12.2019 15:00:00 3,7 1,7 3,8 4 2 11 6 - 978,2 10 0,0
13.12.2019 14:00:00 4,0 0,7 4,1 8 4 18 10 ESE 977,4 10 0,0
13.12.2019 13:00:00 3,6 0,6 3,5 9 5 14 8 ESE 976,8 10 0,0
13.12.2019 12:00:00 3,4 0,4 3,2 11 6 22 12 ESE 976,2 10 0,0
13.12.2019 11:00:00 3,1 0,4 2,9 13 7 22 12 ESE 976,0 10 0,0
13.12.2019 10:00:00 2,8 0,5 2,6 15 8 25 14 ESE 975,7 10 0,0
13.12.2019 09:00:00 2,5 0,7 2,2 15 8 32 18 ESE 975,4 10 0,2
13.12.2019 08:00:00 2,3 0,9 2,0 15 8 32 18 ESE 975,4 10 0,1
13.12.2019 07:00:00 2,0 0,7 1,8 21 11 40 21 SE 975,7 10 0,5
13.12.2019 06:00:00 3,5 -0,4 3,0 22 12 40 21 SE 976,2 10 0,0
13.12.2019 05:00:00 3,3 -0,6 2,8 22 12 36 19 SE 976,7 10 0,0
13.12.2019 04:00:00 3,2 -0,6 2,6 24 13 43 23 SSE 977,7 10 0,0
13.12.2019 03:00:00 3,3 -0,4 2,8 28 15 47 25 SE 978,6 10 0,0
13.12.2019 02:00:00 3,1 -0,3 2,5 24 13 43 23 SE 980,2 10 0,0
13.12.2019 01:00:00 3,1 -0,4 2,3 24 13 40 21 SE 981,9 10 0,0
13.12.2019 00:00:00 3,3 -0,2 2,8 22 12 40 21 SE 983,7 10 0,0
12.12.2019 23:00:00 3,3 -0,2 2,7 24 13 40 21 SSE 985,3 10 0,0
12.12.2019 22:00:00 3,0 -0,4 2,1 24 13 43 23 SSE 987,0 10 0,0
12.12.2019 21:00:00 3,4 -0,2 2,6 24 13 40 21 SSE 988,5 10 0,0
12.12.2019 20:00:00 2,9 0,4 2,1 21 11 32 18 SSE 990,1 10 0,0
12.12.2019 19:00:00 2,9 0,7 1,9 18 10 29 16 SSE 991,5 10 0,0
12.12.2019 18:00:00 2,8 0,8 1,7 16 9 25 14 SSE 992,8 10 0,0
12.12.2019 17:00:00 3,2 0,9 2,0 16 9 29 16 S 994,1 10 0,0
12.12.2019 16:00:00 4,0 1,2 3,1 18 10 32 18 S 995,2 10 0,0
12.12.2019 15:00:00 4,7 1,6 4,0 22 12 36 19 S 996,2 10 0,0
12.12.2019 14:00:00 5,1 2,8 5,0 21 11 32 18 S 996,8 10 0,0
12.12.2019 13:00:00 5,3 3,0 5,5 21 11 29 16 SSW 997,7 10 0,0
12.12.2019 12:00:00 5,2 3,2 5,5 18 10 25 14 SSW 998,5 10 0,0
12.12.2019 11:00:00 4,5 3,2 4,6 16 9 25 14 SSW 999,2 8 0,0
12.12.2019 10:00:00 3,7 2,9 3,4 16 9 25 14 SSW 999,5 5 0,0
12.12.2019 09:00:00 4,3 3,5 4,0 15 8 25 14 SSW 999,5 6 0,0
12.12.2019 08:00:00 4,6 3,6 4,2 18 10 29 16 SW 999,3 8 0,0
12.12.2019 07:00:00 4,9 3,7 4,6 22 12 32 18 SW 999,2 8 0,0
12.12.2019 06:00:00 5,0 3,7 4,6 18 10 29 16 SSW 999,2 9 0,2
12.12.2019 05:00:00 5,4 3,9 5,1 18 10 29 16 SSW 999,6 9 0,0
12.12.2019 04:00:00 5,4 3,9 5,0 15 8 25 14 S 999,9 8 0,0
12.12.2019 03:00:00 5,4 4,1 5,0 15 8 22 12 S 1000,5 6 0,0
12.12.2019 02:00:00 5,2 4,3 4,9 13 7 25 14 SSW 1000,9 5 0,0
12.12.2019 01:00:00 5,1 4,0 4,7 15 8 25 14 S 1001,4 4,7 0,0
12.12.2019 00:00:00 4,3 3,6 3,7 13 7 25 14 SSW 1001,7 3,6 0,0
11.12.2019 23:00:00 4,3 3,6 3,7 13 7 25 14 SSW 1002,3 2,9 0,0
11.12.2019 22:00:00 4,8 4,1 4,5 15 8 25 14 SSW 1002,7 3,3 0,0
11.12.2019 21:00:00 4,6 3,9 4,0 13 7 18 10 SSW 1003,0 3,7 0,0
11.12.2019 20:00:00 5,3 4,4 4,8 16 9 22 12 SSW 1003,2 5 0,0
11.12.2019 19:00:00 5,1 4,3 4,4 13 7 18 10 SSW 1003,4 5 0,0
11.12.2019 18:00:00 5,5 4,5 4,6 11 6 14 8 S 1003,6 7 0,0
11.12.2019 17:00:00 6,0 4,6 5,5 11 6 18 10 SSW 1003,9 9 0,0
11.12.2019 16:00:00 6,2 4,7 5,7 11 6 29 16 S 1004,0 9 0,0
11.12.2019 15:00:00 6,5 5,4 6,5 13 7 18 10 SSW 1004,2 9 0,0
11.12.2019 14:00:00 6,6 5,5 6,5 11 6 18 10 SSW 1004,5 9 0,0
11.12.2019 13:00:00 6,8 5,5 6,9 13 7 22 12 SW 1005,5 10 0,0
11.12.2019 12:00:00 6,9 6,1 6,9 13 7 22 12 SSW 1006,2 8 0,0
11.12.2019 11:00:00 6,8 6,0 6,7 15 8 22 12 SSW 1006,7 8 0,0
11.12.2019 10:00:00 6,4 5,8 6,3 16 9 25 14 SSW 1006,9 9 0,0
11.12.2019 09:00:00 6,2 5,5 5,9 16 9 25 14 SSW 1007,0 10 0,0
11.12.2019 08:00:00 6,3 5,5 6,0 16 9 25 14 SSW 1007,0 10 0,0
11.12.2019 07:00:00 6,3 5,6 6,0 16 9 25 14 SSW 1007,0 10 0,0
11.12.2019 06:00:00 6,2 5,7 6,0 13 7 32 18 SW 1006,8 9 0,7
11.12.2019 05:00:00 6,0 5,2 5,7 26 14 40 21 SSW 1006,8 10 0,6
11.12.2019 04:00:00 5,7 4,8 5,4 34 18 50 27 SSW 1007,1 6 0,7
11.12.2019 03:00:00 5,8 4,6 5,5 29 16 50 27 SSW 1006,6 8 0,1
11.12.2019 02:00:00 6,1 2,7 5,5 31 17 54 29 S 1006,7 10 0,0
11.12.2019 01:00:00 6,1 2,1 5,7 35 19 58 31 S 1006,9 10 0,0
11.12.2019 00:00:00 6,1 1,3 5,7 39 21 65 35 S 1007,6 10 0,0
10.12.2019 23:00:00 5,9 1,1 5,4 39 21 61 33 S 1008,2 10 0,0
10.12.2019 22:00:00 5,7 0,9 5,2 35 19 61 33 S 1009,1 10 0,0
10.12.2019 21:00:00 5,6 0,7 4,8 41 22 65 35 S 1009,9 10 0,0
10.12.2019 20:00:00 5,2 0,9 4,4 34 18 58 31 S 1011,1 10 0,2
10.12.2019 19:00:00 4,9 1,2 4,3 34 18 54 29 S 1012,6 10 0,0
10.12.2019 18:00:00 5,1 0,9 4,6 34 18 54 29 S 1013,7 10 0,0
10.12.2019 17:00:00 4,9 1,2 4,3 34 18 47 25 S 1015,3 10 0,0
10.12.2019 16:00:00 5,3 1,2 4,7 26 14 47 25 S 1016,5 10 0,0
10.12.2019 15:00:00 5,8 1,0 5,2 28 15 47 25 S 1017,9 10 0,0
10.12.2019 14:00:00 6,1 1,6 5,9 31 17 43 23 SSW 1019,1 10 0,0
10.12.2019 13:00:00 6,2 2,0 6,1 24 13 40 21 SSW 1020,1 10 0,0
10.12.2019 12:00:00 6,0 2,5 6,0 21 11 29 16 SSW 1021,3 10 0,0
10.12.2019 11:00:00 4,5 1,8 4,6 21 11 25 14 SSW 1022,2 10 0,0
10.12.2019 10:00:00 2,6 0,8 1,8 9 5 18 10 SSW 1022,5 10 0,0
10.12.2019 09:00:00 1,8 -0,6 0,4 11 6 14 8 S 1022,4 10 0,0
10.12.2019 08:00:00 0,8 -1,1 -1,2 9 5 14 8 SSW 1022,1 10 0,0
10.12.2019 07:00:00 1,0 -0,6 -0,1 11 6 14 8 SW 1022,0 10 0,0
10.12.2019 06:00:00 2,8 0,9 2,2 8 4 14 8 WSW 1021,9 10 0,0
10.12.2019 05:00:00 3,6 0,1 0,7 9 5 14 8 W 1021,4 10 0,0
10.12.2019 04:00:00 3,8 0,2 2,1 9 5 18 10 W 1021,0 10 0,0
10.12.2019 03:00:00 4,3 0,8 2,9 11 6 22 12 W 1020,3 10 0,0
10.12.2019 02:00:00 4,7 0,8 2,8 11 6 22 12 WNW 1019,3 10 0,0
10.12.2019 01:00:00 4,6 0,2 2,4 11 6 22 12 W 1018,3 10 0,0
10.12.2019 00:00:00 5,4 0,7 4,6 16 9 47 25 NW 1017,2 10 0,0
09.12.2019 23:00:00 4,9 0,2 3,6 16 9 25 14 WNW 1016,0 10 0,0
09.12.2019 22:00:00 5,3 0,0 4,0 21 11 32 18 NW 1014,8 10 0,0
09.12.2019 21:00:00 5,4 -0,4 4,4 26 14 40 21 NW 1013,3 10 0,0
09.12.2019 20:00:00 5,0 1,1 3,8 18 10 61 33 NW 1011,5 10 0,0
09.12.2019 19:00:00 6,2 1,8 4,3 16 9 58 31 NNW 1010,0 10 0,1
09.12.2019 18:00:00 6,7 1,4 5,7 24 13 36 19 NW 1007,7 10 0,0
09.12.2019 17:00:00 7,3 1,6 6,6 26 14 43 23 NNW 1005,6 10 0,0
09.12.2019 16:00:00 7,9 2,4 6,8 26 14 43 23 NNW 1003,2 10 0,0
09.12.2019 15:00:00 7,0 4,9 6,5 18 10 47 25 NW 1000,8 10 1,3
09.12.2019 14:00:00 6,9 5,1 6,7 11 6 29 16 W 998,6 10 0,2
09.12.2019 13:00:00 7,4 5,5 7,3 16 9 25 14 WSW 997,0 10 0,0
09.12.2019 12:00:00 6,8 4,9 6,4 18 10 25 14 WSW 995,5 10 0,0
09.12.2019 11:00:00 5,3 3,8 4,9 13 7 22 12 SW 994,8 10 0,0
09.12.2019 10:00:00 5,2 3,3 4,8 13 7 25 14 SSW 993,8 10 0,0
09.12.2019 09:00:00 5,1 3,3 4,4 21 11 36 19 SW 993,2 10 0,0
09.12.2019 08:00:00 5,8 3,9 5,2 22 12 40 21 SW 992,4 10 0,0
09.12.2019 07:00:00 6,0 3,9 5,3 26 14 43 23 SSW 991,6 10 0,0
09.12.2019 06:00:00 6,0 3,9 5,3 28 15 43 23 SSW 991,4 10 0,0
09.12.2019 05:00:00 6,0 4,0 5,3 29 16 43 23 SSW 991,6 10 0,0
09.12.2019 04:00:00 6,1 4,0 5,5 29 16 43 23 SSW 991,7 10 0,0
09.12.2019 03:00:00 6,1 4,2 5,7 26 14 58 31 SSW 992,3 10 0,0
09.12.2019 02:00:00 6,1 4,2 5,5 28 15 43 23 SW 992,3 10 0,0
09.12.2019 01:00:00 6,4 3,9 5,4 29 16 40 21 SW 992,7 10 0,0
09.12.2019 00:00:00 5,9 4,0 5,1 24 13 36 19 SW 992,8 10 0,0

tt = temperature
td = dewpoint
tt 5cm = temperature 5cm
ff = wind speed
fx = gusts
dd = wind direction
ppp = reduced air pressure
vv = visibility
rr = precipitation

Next stations